Springfield, IL

4:24 PM CDT on April 21, 2018 (GMT -0500)
Capital

Weather History for KSPI - June, 2014

Change the Weather History Date:

Thursday, June 5, 2014

  Actual Average Record
Temperature  
Mean Temperature 69 °F 70 °F  
Max Temperature 78 °F 81 °F 100 °F (1977)
Min Temperature 60 °F 59 °F 45 °F (1951)
Degree Days  
Heating Degree Days 0 1  
Month to date heating degree days 0 5  
Since 1 June heating degree days 0 5  
Since 1 July heating degree days 6206 5475  
Cooling Degree Days 4 6  
Month to date cooling degree days 56 27  
Year to date cooling degree days 232 131  
Since 1 June cooling degree days 56 27  
Growing Degree Days 18 (Base 50)    
Moisture  
Dew Point 56 °F    
Average Humidity 67    
Maximum Humidity 90    
Minimum Humidity 43    
Precipitation  
Precipitation 0.00 in 0.15 in 2.13 in (1887)
Month to date precipitation 2.28 0.77  
Year to date precipitation 16.57 14.78  
Snow  
Snow 0.00 in 0.00 in 0.00 in ()
Month to date snowfall 0.0 0.0  
Since 1 June snowfall 0.0 0.0  
Since 1 July snowfall 45.7 20.9  
Snow Depth 0.00 in    
Sea Level Pressure  
Sea Level Pressure 29.92 in    
Wind  
Wind Speed 8 mph (ENE)    
Max Wind Speed 16 mph    
Max Gust Speed 20 mph    
Visibility 10 miles    
Events      
T = Trace of Precipitation, MM = Missing Value Source: NWS Daily Summary

Daily Weather History Graph

Daily Weather History Graph

Search for Another Location

Airport or City:

Astronomy

Jun. 05, 2014 Rise Set
Actual Time 5:31 AM CDT 8:23 PM CDT
Civil Twilight 4:58 AM CDT 8:56 PM CDT
Nautical Twilight 4:18 AM CDT 9:36 PM CDT
Astronomical Twilight 3:31 AM CDT 10:23 PM CDT
Moon 12:46 PM CDT (6/5) 12:52 AM CDT (6/5)
Length of Visible Light 15h 57m
Length of Day
14h 52m
Waxing Crescent, 49% of the Moon is Illuminated
Jun 5
Waxing Crescent
Jun 5
First Quarter
Jun 12
Full
Jun 19
Last Quarter
Jun 27
New

Hourly Weather History & Observations

Time (CDT) Temp. Dew Point Humidity Pressure Visibility Wind Dir Wind Speed Gust Speed Precip Events Conditions
12:52 AM 64.9 °F 59.0 °F 81% 29.89 in 10.0 mi ENE 6.9 mph - N/A   Overcast
1:52 AM 64.0 °F 57.9 °F 80% 29.90 in 10.0 mi ENE 10.4 mph - N/A   Overcast
2:38 AM 63.0 °F 57.9 °F 84% 29.91 in 10.0 mi ENE 9.2 mph - N/A   Overcast
2:52 AM 62.1 °F 57.0 °F 84% 29.90 in 10.0 mi East 8.1 mph - N/A   Overcast
3:37 AM 61.0 °F 57.0 °F 87% 29.91 in 10.0 mi ENE 8.1 mph - N/A   Scattered Clouds
3:52 AM 61.0 °F 57.0 °F 87% 29.90 in 10.0 mi ENE 6.9 mph - N/A   Partly Cloudy
4:06 AM 61.0 °F 57.0 °F 87% 29.91 in 9.0 mi NE 8.1 mph - N/A   Partly Cloudy
4:43 AM 60.1 °F 57.0 °F 90% 29.93 in 6.0 mi NNE 8.1 mph - N/A   Mostly Cloudy
4:52 AM 60.1 °F 57.0 °F 90% 29.93 in 5.0 mi NNE 9.2 mph - N/A   Overcast
5:40 AM 60.1 °F 57.0 °F 90% 29.93 in 8.0 mi ENE 9.2 mph - N/A   Overcast
5:52 AM 61.0 °F 57.0 °F 87% 29.92 in 8.0 mi ENE 10.4 mph - N/A   Overcast
6:48 AM 60.8 °F 55.4 °F 82% 29.91 in 10.0 mi ENE 11.5 mph - N/A   Mostly Cloudy
6:52 AM 61.0 °F 55.9 °F 83% 29.90 in 10.0 mi ENE 11.5 mph - N/A   Mostly Cloudy
7:04 AM 62.1 °F 57.0 °F 84% 29.93 in 10.0 mi ENE 8.1 mph - N/A   Scattered Clouds
7:22 AM 63.0 °F 55.9 °F 78% 29.95 in 10.0 mi ENE 8.1 mph - N/A   Mostly Cloudy
7:52 AM 64.9 °F 57.0 °F 75% 29.94 in 10.0 mi East 9.2 mph - N/A   Scattered Clouds
8:52 AM 66.9 °F 57.0 °F 70% 29.95 in 10.0 mi ENE 12.7 mph - N/A   Partly Cloudy
9:52 AM 69.8 °F 57.2 °F 64% 29.96 in 10.0 mi East 10.4 mph - N/A   Partly Cloudy
10:52 AM 72.0 °F 55.0 °F 55% 29.99 in 10.0 mi East 12.7 mph 18.4 mph N/A   Partly Cloudy
11:52 AM 73.0 °F 57.0 °F 57% 29.97 in 10.0 mi SE 6.9 mph - N/A   Partly Cloudy
12:52 PM 73.9 °F 55.0 °F 52% 29.95 in 10.0 mi East 10.4 mph - N/A   Clear
1:52 PM 75.0 °F 57.0 °F 53% 29.91 in 10.0 mi East 10.4 mph - N/A   Clear
2:52 PM 73.9 °F 55.0 °F 52% 29.87 in 10.0 mi ESE 15.0 mph - N/A   Clear
3:52 PM 75.9 °F 55.9 °F 50% 29.90 in 10.0 mi Variable 4.6 mph - N/A   Clear
4:52 PM 77.0 °F 54.0 °F 45% 29.90 in 10.0 mi East 6.9 mph - N/A   Clear
5:52 PM 77.0 °F 55.0 °F 47% 29.88 in 10.0 mi East 10.4 mph - N/A   Clear
6:52 PM 75.9 °F 53.1 °F 45% 29.91 in 10.0 mi East 8.1 mph - N/A   Clear
7:52 PM 73.0 °F 54.0 °F 51% 29.92 in 10.0 mi ESE 5.8 mph - N/A   Clear
8:52 PM 69.1 °F 55.9 °F 63% 29.93 in 10.0 mi Calm Calm - N/A   Clear
9:52 PM 64.0 °F 57.9 °F 80% 29.94 in 10.0 mi Calm Calm - N/A   Clear
10:52 PM 64.0 °F 57.9 °F 80% 29.93 in 10.0 mi Calm Calm - N/A   Clear
11:52 PM 62.1 °F 57.9 °F 86% 29.92 in 10.0 mi Calm Calm - N/A   Clear